Time,TemperatureF,DewpointF,PressureIn,WindDirection,WindDirectionDegrees,WindSpeedMPH,WindSpeedGustMPH,Humidity,HourlyPrecipIn,Conditions,Clouds,dailyrainin,SolarRadiationWatts/m^2,SoftwareType,DateUTC
2013-05-16 00:01:00,52.0,50.0,29.69,SSE,156,0.0,0.0,93,0.00,,,0.00,0.0,meteohub,2013-05-16 04:01:00,
2013-05-16 00:02:00,52.0,50.0,29.69,SSE,156,0.0,0.0,93,0.00,,,0.00,0.0,meteohub,2013-05-16 04:02:00,
2013-05-16 00:03:00,52.0,50.0,29.69,SSE,156,0.0,0.0,93,0.00,,,0.00,0.0,meteohub,2013-05-16 04:03:00,
2013-05-16 00:08:00,52.0,50.0,29.69,SSE,156,0.0,0.0,93,0.00,,,0.00,0.0,meteohub,2013-05-16 04:08:00,
2013-05-16 00:13:00,51.8,49.8,29.69,SSE,156,0.0,0.0,93,0.00,,,0.00,0.0,meteohub,2013-05-16 04:13:00,
2013-05-16 00:18:00,51.4,49.5,29.69,SSE,156,0.0,0.0,93,0.00,,,0.00,0.0,meteohub,2013-05-16 04:18:00,
2013-05-16 00:24:00,51.3,49.3,29.69,SSE,156,0.0,0.0,93,0.00,,,0.00,0.0,meteohub,2013-05-16 04:24:00,
2013-05-16 00:29:00,51.1,49.1,29.69,SSE,156,0.0,1.0,93,0.00,,,0.00,0.0,meteohub,2013-05-16 04:29:00,
2013-05-16 00:34:00,50.7,48.7,29.69,SSE,156,2.0,2.0,93,0.00,,,0.00,0.0,meteohub,2013-05-16 04:34:00,
2013-05-16 00:39:00,50.7,49.1,29.69,SSE,156,0.0,2.0,94,0.00,,,0.00,0.0,meteohub,2013-05-16 04:39:00,
2013-05-16 00:44:00,50.7,49.1,29.69,SSE,156,0.0,4.0,94,0.00,,,0.00,0.0,meteohub,2013-05-16 04:44:00,
2013-05-16 00:49:00,50.7,49.1,29.69,SSE,156,0.0,4.0,94,0.00,,,0.00,0.0,meteohub,2013-05-16 04:49:00,
2013-05-16 00:54:00,50.5,48.9,29.69,SSE,156,0.0,1.0,94,0.00,,,0.00,0.0,meteohub,2013-05-16 04:54:00,
2013-05-16 00:59:00,50.4,48.7,29.69,SSE,156,0.0,0.0,94,0.00,,,0.00,0.0,meteohub,2013-05-16 04:59:00,
2013-05-16 01:05:00,50.5,48.9,29.69,SSE,156,0.0,0.0,94,0.00,,,0.00,0.0,meteohub,2013-05-16 05:05:00,
2013-05-16 01:10:00,49.8,47.8,29.69,NE,52,2.0,0.0,93,0.00,,,0.00,0.0,meteohub,2013-05-16 05:10:00,
2013-05-16 01:15:00,49.8,48.2,29.69,NNE,18,2.0,5.0,94,0.00,,,0.00,0.0,meteohub,2013-05-16 05:15:00,
2013-05-16 01:20:00,50.2,48.6,29.69,NNE,18,2.0,5.0,94,0.00,,,0.00,0.0,meteohub,2013-05-16 05:20:00,
2013-05-16 01:25:00,50.0,48.4,29.70,NNE,18,2.0,5.0,94,0.00,,,0.00,0.0,meteohub,2013-05-16 05:25:00,
2013-05-16 01:30:00,50.2,48.6,29.70,NNE,18,0.0,4.0,94,0.00,,,0.00,0.0,meteohub,2013-05-16 05:30:00,
2013-05-16 01:35:00,49.8,48.2,29.70,NNE,18,0.0,4.0,94,0.00,,,0.00,0.0,meteohub,2013-05-16 05:35:00,
2013-05-16 01:40:00,49.6,48.0,29.69,NNE,18,2.0,3.0,94,0.00,,,0.00,0.0,meteohub,2013-05-16 05:40:00,
2013-05-16 01:46:00,49.6,48.0,29.69,NNE,18,2.0,4.0,94,0.00,,,0.00,0.0,meteohub,2013-05-16 05:46:00,
2013-05-16 01:51:00,49.6,48.0,29.69,NNE,18,0.0,4.0,94,0.00,,,0.00,0.0,meteohub,2013-05-16 05:51:00,
2013-05-16 01:56:00,49.5,47.8,29.69,NNE,18,3.0,3.0,94,0.00,,,0.00,0.0,meteohub,2013-05-16 05:56:00,
2013-05-16 02:01:00,49.6,48.0,29.69,NNE,18,4.0,4.0,94,0.00,,,0.00,0.0,meteohub,2013-05-16 06:01:00,
2013-05-16 02:06:00,49.5,47.8,29.69,NNE,18,0.0,4.0,94,0.00,,,0.00,0.0,meteohub,2013-05-16 06:06:00,
2013-05-16 02:11:00,49.1,47.5,29.69,NNE,18,0.0,4.0,94,0.00,,,0.00,0.0,meteohub,2013-05-16 06:11:00,
2013-05-16 02:16:00,48.9,47.3,29.69,NNE,18,0.0,4.0,94,0.00,,,0.00,0.0,meteohub,2013-05-16 06:16:00,
2013-05-16 02:21:00,48.9,47.3,29.69,NNE,18,0.0,0.0,94,0.00,,,0.00,0.0,meteohub,2013-05-16 06:21:00,
2013-05-16 02:26:00,48.9,47.5,29.69,NNE,18,0.0,0.0,95,0.00,,,0.00,0.0,meteohub,2013-05-16 06:26:00,
2013-05-16 02:32:00,48.7,47.1,29.69,NNE,18,0.0,0.0,94,0.00,,,0.00,0.0,meteohub,2013-05-16 06:32:00,
2013-05-16 02:37:00,48.7,47.1,29.69,NNE,18,0.0,0.0,94,0.00,,,0.00,0.0,meteohub,2013-05-16 06:37:00,
2013-05-16 02:42:00,48.6,46.9,29.69,NNE,18,0.0,0.0,94,0.00,,,0.00,0.0,meteohub,2013-05-16 06:42:00,
2013-05-16 02:47:00,48.6,46.9,29.69,NNE,18,0.0,0.0,94,0.00,,,0.00,0.0,meteohub,2013-05-16 06:47:00,
2013-05-16 02:52:00,48.2,46.6,29.69,NNE,18,2.0,0.0,94,0.00,,,0.00,0.0,meteohub,2013-05-16 06:52:00,
2013-05-16 02:57:00,47.8,46.2,29.69,NNE,18,3.0,3.0,94,0.00,,,0.00,0.0,meteohub,2013-05-16 06:57:00,
2013-05-16 03:02:00,48.4,46.9,29.69,NNE,18,1.0,4.0,95,0.00,,,0.00,0.0,meteohub,2013-05-16 07:02:00,
2013-05-16 03:07:00,48.6,47.1,29.69,NNE,18,1.0,4.0,95,0.00,,,0.00,0.0,meteohub,2013-05-16 07:07:00,
2013-05-16 03:12:00,48.7,47.3,29.69,NNE,18,2.0,4.0,95,0.00,,,0.00,0.0,meteohub,2013-05-16 07:12:00,
2013-05-16 03:17:00,48.0,46.4,29.69,NNE,18,1.0,4.0,94,0.00,,,0.00,0.0,meteohub,2013-05-16 07:17:00,
2013-05-16 03:22:00,48.0,46.6,29.69,NNE,18,1.0,4.0,95,0.00,,,0.00,0.0,meteohub,2013-05-16 07:22:00,
2013-05-16 03:27:00,48.6,47.1,29.69,NNE,18,3.0,4.0,95,0.00,,,0.00,0.0,meteohub,2013-05-16 07:27:00,
2013-05-16 03:32:00,48.6,47.1,29.69,NNE,18,0.0,4.0,95,0.00,,,0.00,0.0,meteohub,2013-05-16 07:32:00,
2013-05-16 03:37:00,48.0,46.4,29.69,NNE,18,0.0,3.0,94,0.00,,,0.00,0.0,meteohub,2013-05-16 07:37:00,
2013-05-16 03:42:00,47.8,46.2,29.70,NNE,20,0.0,3.0,94,0.00,,,0.00,0.0,meteohub,2013-05-16 07:42:00,
2013-05-16 03:47:00,47.7,46.2,29.70,NNE,20,0.0,2.0,95,0.00,,,0.00,0.0,meteohub,2013-05-16 07:47:00,
2013-05-16 03:52:00,47.5,46.0,29.70,NNE,20,0.0,2.0,95,0.00,,,0.00,0.0,meteohub,2013-05-16 07:52:00,
2013-05-16 03:57:00,47.7,46.2,29.70,NNE,20,0.0,1.0,95,0.00,,,0.00,0.0,meteohub,2013-05-16 07:57:00,
2013-05-16 04:02:00,47.3,45.9,29.70,NE,39,1.0,3.0,95,0.00,,,0.00,0.0,meteohub,2013-05-16 08:02:00,
2013-05-16 04:07:00,47.3,45.9,29.70,NE,42,0.0,3.0,95,0.00,,,0.00,0.0,meteohub,2013-05-16 08:07:00,
2013-05-16 04:12:00,47.3,45.9,29.70,NE,42,0.0,3.0,95,0.00,,,0.00,0.0,meteohub,2013-05-16 08:12:00,
2013-05-16 04:17:00,47.5,46.0,29.70,NE,42,0.0,2.0,95,0.00,,,0.00,0.0,meteohub,2013-05-16 08:17:00,
2013-05-16 04:22:00,47.3,45.9,29.69,NE,42,0.0,0.0,95,0.00,,,0.00,0.0,meteohub,2013-05-16 08:22:00,
2013-05-16 04:27:00,47.5,46.0,29.69,NE,42,0.0,0.0,95,0.00,,,0.00,0.0,meteohub,2013-05-16 08:27:00,
2013-05-16 04:32:00,47.7,46.2,29.69,NE,42,0.0,0.0,95,0.00,,,0.00,0.0,meteohub,2013-05-16 08:32:00,
2013-05-16 04:37:00,47.7,46.2,29.69,NE,42,0.0,0.0,95,0.00,,,0.00,0.0,meteohub,2013-05-16 08:37:00,
2013-05-16 04:42:00,47.5,46.0,29.69,NE,42,0.0,0.0,95,0.00,,,0.00,0.0,meteohub,2013-05-16 08:42:00,
2013-05-16 04:47:00,47.1,45.7,29.69,NE,42,0.0,0.0,95,0.00,,,0.00,0.0,meteohub,2013-05-16 08:47:00,
2013-05-16 04:52:00,46.9,45.5,29.69,NE,42,0.0,0.0,95,0.00,,,0.00,0.0,meteohub,2013-05-16 08:52:00,
2013-05-16 04:57:00,46.8,45.3,29.69,NE,42,0.0,0.0,95,0.00,,,0.00,0.0,meteohub,2013-05-16 08:57:00,
2013-05-16 05:02:00,46.8,45.3,29.69,NE,42,0.0,0.0,95,0.00,,,0.00,0.0,meteohub,2013-05-16 09:02:00,
2013-05-16 05:07:00,46.6,45.1,29.69,NE,42,0.0,0.0,95,0.00,,,0.00,0.0,meteohub,2013-05-16 09:07:00,
2013-05-16 05:12:00,46.2,44.8,29.69,NE,42,0.0,0.0,95,0.00,,,0.00,0.0,meteohub,2013-05-16 09:12:00,
2013-05-16 05:17:00,46.4,45.0,29.70,NE,42,0.0,0.0,95,0.00,,,0.00,0.0,meteohub,2013-05-16 09:17:00,
2013-05-16 05:22:00,46.4,45.0,29.70,NE,42,0.0,0.0,95,0.00,,,0.00,0.0,meteohub,2013-05-16 09:22:00,
2013-05-16 05:27:00,46.2,44.8,29.70,NE,42,0.0,0.0,95,0.00,,,0.00,0.0,meteohub,2013-05-16 09:27:00,
2013-05-16 05:32:00,46.4,45.0,29.70,NE,42,0.0,1.0,95,0.00,,,0.00,0.0,meteohub,2013-05-16 09:32:00,
2013-05-16 05:37:00,46.0,44.6,29.70,NE,42,0.0,1.0,95,0.00,,,0.00,5.0,meteohub,2013-05-16 09:37:00,
2013-05-16 05:42:00,46.2,44.8,29.70,NE,42,0.0,1.0,95,0.00,,,0.00,7.0,meteohub,2013-05-16 09:42:00,
2013-05-16 05:47:00,46.2,44.8,29.70,NE,42,0.0,1.0,95,0.00,,,0.00,11.0,meteohub,2013-05-16 09:47:00,
2013-05-16 05:52:00,46.0,44.6,29.70,NE,42,0.0,2.0,95,0.00,,,0.00,14.0,meteohub,2013-05-16 09:52:00,
2013-05-16 05:57:00,46.2,44.8,29.70,NE,42,0.0,2.0,95,0.00,,,0.00,18.0,meteohub,2013-05-16 09:57:00,
2013-05-16 06:02:00,46.2,44.8,29.71,NE,42,0.0,2.0,95,0.00,,,0.00,21.0,meteohub,2013-05-16 10:02:00,
2013-05-16 06:07:00,46.2,44.8,29.71,NE,42,0.0,1.0,95,0.00,,,0.00,23.0,meteohub,2013-05-16 10:07:00,
2013-05-16 06:12:00,46.6,45.1,29.71,NE,42,0.0,0.0,95,0.00,,,0.00,32.0,meteohub,2013-05-16 10:12:00,
2013-05-16 06:17:00,46.9,45.5,29.71,NE,42,0.0,2.0,95,0.00,,,0.00,54.0,meteohub,2013-05-16 10:17:00,
2013-05-16 06:22:00,46.9,45.5,29.71,NE,42,0.0,2.0,95,0.00,,,0.00,30.0,meteohub,2013-05-16 10:22:00,
2013-05-16 06:27:00,47.3,45.9,29.72,NE,42,0.0,1.0,95,0.00,,,0.00,90.0,meteohub,2013-05-16 10:27:00,
2013-05-16 06:32:00,47.8,46.4,29.72,NE,42,0.0,2.0,95,0.00,,,0.00,114.0,meteohub,2013-05-16 10:32:00,
2013-05-16 06:37:00,48.4,46.9,29.72,NE,42,0.0,2.0,95,0.00,,,0.00,137.0,meteohub,2013-05-16 10:37:00,
2013-05-16 06:42:00,49.1,48.0,29.72,NE,42,0.0,0.0,96,0.00,,,0.00,72.0,meteohub,2013-05-16 10:42:00,
2013-05-16 06:48:00,49.5,48.4,29.73,NE,42,0.0,1.0,96,0.00,,,0.00,91.0,meteohub,2013-05-16 10:48:00,
2013-05-16 06:53:00,49.8,48.4,29.73,NE,42,0.0,1.0,95,0.00,,,0.00,72.0,meteohub,2013-05-16 10:53:00,
2013-05-16 06:58:00,50.2,48.7,29.73,NE,42,2.0,2.0,95,0.00,,,0.00,104.0,meteohub,2013-05-16 10:58:00,
2013-05-16 07:03:00,50.4,48.9,29.73,NE,43,0.0,3.0,95,0.00,,,0.00,221.0,meteohub,2013-05-16 11:03:00,
2013-05-16 07:08:00,51.1,49.6,29.73,NE,43,1.0,3.0,95,0.00,,,0.00,134.0,meteohub,2013-05-16 11:08:00,
2013-05-16 07:13:00,52.2,50.7,29.74,NE,43,0.0,3.0,95,0.00,,,0.00,237.0,meteohub,2013-05-16 11:13:00,
2013-05-16 07:18:00,53.1,51.6,29.75,SW,217,2.0,2.0,95,0.00,,,0.00,244.0,meteohub,2013-05-16 11:18:00,
2013-05-16 07:23:00,54.0,52.5,29.75,South,184,4.0,5.0,95,0.00,,,0.00,251.0,meteohub,2013-05-16 11:23:00,
2013-05-16 07:28:00,54.7,53.2,29.75,SW,225,2.0,6.0,95,0.00,,,0.00,128.0,meteohub,2013-05-16 11:28:00,
2013-05-16 07:34:00,55.0,53.6,29.75,South,184,3.0,6.0,95,0.00,,,0.00,281.0,meteohub,2013-05-16 11:34:00,
2013-05-16 07:39:00,55.8,54.1,29.75,SSW,195,0.0,4.0,94,0.00,,,0.00,338.0,meteohub,2013-05-16 11:39:00,
2013-05-16 07:44:00,56.3,54.7,29.75,WSW,254,0.0,4.0,94,0.00,,,0.00,267.0,meteohub,2013-05-16 11:44:00,
2013-05-16 07:49:00,57.2,55.2,29.75,WSW,254,0.0,5.0,93,0.00,,,0.00,352.0,meteohub,2013-05-16 11:49:00,
2013-05-16 07:54:00,57.9,55.6,29.76,SSW,193,1.0,5.0,92,0.00,,,0.00,221.0,meteohub,2013-05-16 11:54:00,
2013-05-16 07:59:00,57.9,55.2,29.75,SSW,198,0.0,5.0,91,0.00,,,0.00,311.0,meteohub,2013-05-16 11:59:00,
2013-05-16 08:04:00,58.5,55.6,29.76,SW,221,2.0,4.0,90,0.00,,,0.00,148.0,meteohub,2013-05-16 12:04:00,
2013-05-16 08:09:00,58.6,55.4,29.76,SW,221,2.0,4.0,89,0.00,,,0.00,178.0,meteohub,2013-05-16 12:09:00,
2013-05-16 08:15:00,59.2,55.9,29.76,SW,221,0.0,4.0,89,0.00,,,0.00,431.0,meteohub,2013-05-16 12:15:00,
2013-05-16 08:20:00,60.6,56.7,29.76,WSW,244,0.0,4.0,87,0.00,,,0.00,269.0,meteohub,2013-05-16 12:20:00,
2013-05-16 08:25:00,61.9,57.4,29.76,NNW,329,0.0,5.0,85,0.00,,,0.00,221.0,meteohub,2013-05-16 12:25:00,
2013-05-16 08:30:00,62.1,56.8,29.76,WNW,299,4.0,7.0,83,0.00,,,0.00,172.0,meteohub,2013-05-16 12:30:00,
2013-05-16 08:35:00,61.9,56.7,29.76,WNW,299,4.0,7.0,83,0.00,,,0.00,139.0,meteohub,2013-05-16 12:35:00,
2013-05-16 08:40:00,62.1,56.8,29.76,WNW,300,0.0,7.0,83,0.00,,,0.00,209.0,meteohub,2013-05-16 12:40:00,
2013-05-16 08:45:00,62.4,57.2,29.76,WNW,294,1.0,5.0,83,0.00,,,0.00,285.0,meteohub,2013-05-16 12:45:00,
2013-05-16 08:50:00,63.3,57.4,29.76,WNW,301,1.0,7.0,81,0.00,,,0.00,322.0,meteohub,2013-05-16 12:50:00,
2013-05-16 08:56:00,63.7,57.4,29.77,WNW,296,1.0,7.0,80,0.00,,,0.00,260.0,meteohub,2013-05-16 12:56:00,
2013-05-16 09:01:00,63.7,57.0,29.77,WNW,294,6.0,7.0,79,0.00,,,0.00,218.0,meteohub,2013-05-16 13:01:00,
2013-05-16 09:06:00,64.2,56.8,29.77,WNW,292,5.0,7.0,77,0.00,,,0.00,568.0,meteohub,2013-05-16 13:06:00,
2013-05-16 09:11:00,65.1,57.0,29.77,West,265,0.0,7.0,75,0.00,,,0.00,473.0,meteohub,2013-05-16 13:11:00,
2013-05-16 09:16:00,65.8,57.0,29.77,WNW,290,6.0,7.0,73,0.00,,,0.00,517.0,meteohub,2013-05-16 13:16:00,
2013-05-16 09:21:00,66.4,56.3,29.77,WSW,245,4.0,9.0,70,0.00,,,0.00,258.0,meteohub,2013-05-16 13:21:00,
2013-05-16 09:26:00,66.4,56.3,29.77,SW,215,4.0,9.0,70,0.00,,,0.00,313.0,meteohub,2013-05-16 13:26:00,
2013-05-16 09:32:00,66.9,56.8,29.77,West,280,0.0,9.0,70,0.00,,,0.00,320.0,meteohub,2013-05-16 13:32:00,
2013-05-16 09:37:00,68.2,55.9,29.77,NW,311,6.0,8.0,65,0.00,,,0.00,227.0,meteohub,2013-05-16 13:37:00,
2013-05-16 09:42:00,68.7,55.6,29.77,NW,311,0.0,7.0,63,0.00,,,0.00,271.0,meteohub,2013-05-16 13:42:00,
2013-05-16 09:47:00,68.7,56.1,29.77,NW,311,0.0,7.0,64,0.00,,,0.00,292.0,meteohub,2013-05-16 13:47:00,
2013-05-16 09:52:00,68.9,55.4,29.76,WNW,292,4.0,7.0,62,0.00,,,0.00,276.0,meteohub,2013-05-16 13:52:00,
2013-05-16 09:57:00,69.4,55.4,29.77,WNW,285,0.0,5.0,61,0.00,,,0.00,478.0,meteohub,2013-05-16 13:57:00,
2013-05-16 10:02:00,69.4,54.0,29.77,SSW,192,2.0,5.0,58,0.00,,,0.00,508.0,meteohub,2013-05-16 14:02:00,
2013-05-16 10:07:00,69.6,56.8,29.77,South,175,1.0,5.0,64,0.00,,,0.00,578.0,meteohub,2013-05-16 14:07:00,
2013-05-16 10:12:00,67.6,56.3,29.77,South,190,8.0,11.0,67,0.00,,,0.00,448.0,meteohub,2013-05-16 14:12:00,
2013-05-16 10:17:00,65.7,56.3,29.77,South,180,11.0,12.0,72,0.00,,,0.00,441.0,meteohub,2013-05-16 14:17:00,
2013-05-16 10:22:00,65.1,56.3,29.77,South,183,6.0,12.0,73,0.00,,,0.00,443.0,meteohub,2013-05-16 14:22:00,
2013-05-16 10:27:00,65.1,56.7,29.77,South,173,4.0,12.0,74,0.00,,,0.00,563.0,meteohub,2013-05-16 14:27:00,
2013-05-16 10:32:00,64.9,56.8,29.77,South,182,4.0,11.0,75,0.00,,,0.00,483.0,meteohub,2013-05-16 14:32:00,
2013-05-16 10:37:00,64.9,57.2,29.77,SSW,193,6.0,10.0,76,0.00,,,0.00,487.0,meteohub,2013-05-16 14:37:00,
2013-05-16 10:42:00,65.3,57.2,29.77,South,178,4.0,10.0,75,0.00,,,0.00,313.0,meteohub,2013-05-16 14:42:00,
2013-05-16 10:47:00,65.5,57.0,29.77,SSW,209,10.0,10.0,74,0.00,,,0.00,441.0,meteohub,2013-05-16 14:47:00,
2013-05-16 10:52:00,65.7,56.3,29.77,SSW,202,3.0,11.0,72,0.00,,,0.00,840.0,meteohub,2013-05-16 14:52:00,
2013-05-16 10:57:00,66.0,55.9,29.77,SW,216,6.0,11.0,70,0.00,,,0.00,652.0,meteohub,2013-05-16 14:57:00,
2013-05-16 11:02:00,65.7,55.6,29.77,SSW,196,5.0,11.0,70,0.00,,,0.00,489.0,meteohub,2013-05-16 15:02:00,
2013-05-16 11:07:00,65.7,55.2,29.77,SW,223,3.0,10.0,69,0.00,,,0.00,515.0,meteohub,2013-05-16 15:07:00,
2013-05-16 11:12:00,66.6,56.1,29.76,South,184,3.0,10.0,69,0.00,,,0.00,529.0,meteohub,2013-05-16 15:12:00,
2013-05-16 11:17:00,67.5,55.2,29.76,SSW,204,0.0,10.0,65,0.00,,,0.00,717.0,meteohub,2013-05-16 15:17:00,
2013-05-16 11:22:00,68.4,54.3,29.75,SSW,198,3.0,8.0,61,0.00,,,0.00,485.0,meteohub,2013-05-16 15:22:00,
2013-05-16 11:27:00,69.1,54.1,29.75,South,182,1.0,8.0,59,0.00,,,0.00,840.0,meteohub,2013-05-16 15:27:00,
2013-05-16 11:32:00,70.2,55.2,29.75,South,174,2.0,7.0,59,0.00,,,0.00,766.0,meteohub,2013-05-16 15:32:00,
2013-05-16 11:37:00,70.9,54.9,29.75,SSW,193,1.0,7.0,57,0.00,,,0.00,826.0,meteohub,2013-05-16 15:37:00,
2013-05-16 11:42:00,71.2,54.3,29.75,South,190,2.0,6.0,55,0.00,,,0.00,879.0,meteohub,2013-05-16 15:42:00,
2013-05-16 11:47:00,72.3,55.2,29.74,SSW,195,6.0,6.0,55,0.00,,,0.00,912.0,meteohub,2013-05-16 15:47:00,
2013-05-16 11:52:00,72.1,54.5,29.74,South,184,10.0,10.0,54,0.00,,,0.00,865.0,meteohub,2013-05-16 15:52:00,
2013-05-16 11:57:00,70.3,52.9,29.74,SSW,198,14.0,14.0,54,0.00,,,0.00,889.0,meteohub,2013-05-16 15:57:00,
2013-05-16 12:02:00,70.0,53.1,29.74,SW,227,8.0,15.0,55,0.00,,,0.00,888.0,meteohub,2013-05-16 16:02:00,
2013-05-16 12:07:00,70.7,53.8,29.74,SSW,204,10.0,15.0,55,0.00,,,0.00,884.0,meteohub,2013-05-16 16:07:00,
2013-05-16 12:12:00,68.7,53.8,29.75,SW,221,7.0,16.0,59,0.00,,,0.00,891.0,meteohub,2013-05-16 16:12:00,
2013-05-16 12:17:00,68.9,54.0,29.75,South,185,10.0,16.0,59,0.00,,,0.00,893.0,meteohub,2013-05-16 16:17:00,
2013-05-16 12:22:00,68.7,53.8,29.75,South,176,7.0,16.0,59,0.00,,,0.00,896.0,meteohub,2013-05-16 16:22:00,
2013-05-16 12:27:00,69.4,54.0,29.74,SW,220,10.0,13.0,58,0.00,,,0.00,902.0,meteohub,2013-05-16 16:27:00,
2013-05-16 12:32:00,70.0,53.6,29.74,WNW,290,6.0,13.0,56,0.00,,,0.00,898.0,meteohub,2013-05-16 16:32:00,
2013-05-16 12:37:00,70.9,53.4,29.74,South,188,4.0,13.0,54,0.00,,,0.00,900.0,meteohub,2013-05-16 16:37:00,
2013-05-16 12:42:00,70.5,52.0,29.74,WSW,257,5.0,13.0,52,0.00,,,0.00,900.0,meteohub,2013-05-16 16:42:00,
2013-05-16 12:47:00,70.9,51.3,29.74,SW,236,10.0,16.0,50,0.00,,,0.00,902.0,meteohub,2013-05-16 16:47:00,
2013-05-16 12:52:00,71.1,50.9,29.74,SW,222,9.0,18.0,49,0.00,,,0.00,902.0,meteohub,2013-05-16 16:52:00,
2013-05-16 12:57:00,71.8,51.1,29.74,SSE,153,6.0,18.0,48,0.00,,,0.00,902.0,meteohub,2013-05-16 16:57:00,
2013-05-16 13:02:00,71.1,49.8,29.73,SSW,209,11.0,18.0,47,0.00,,,0.00,902.0,meteohub,2013-05-16 17:02:00,
2013-05-16 13:07:00,72.1,50.7,29.73,South,186,5.0,17.0,47,0.00,,,0.00,900.0,meteohub,2013-05-16 17:07:00,
2013-05-16 13:12:00,72.3,50.9,29.73,SW,223,6.0,17.0,47,0.00,,,0.00,902.0,meteohub,2013-05-16 17:12:00,
2013-05-16 13:17:00,72.1,50.2,29.73,West,280,2.0,19.0,46,0.00,,,0.00,900.0,meteohub,2013-05-16 17:17:00,
2013-05-16 13:22:00,73.6,50.4,29.73,SSE,163,5.0,19.0,44,0.00,,,0.00,895.0,meteohub,2013-05-16 17:22:00,
2013-05-16 13:27:00,73.0,49.8,29.73,WNW,288,9.0,15.0,44,0.00,,,0.00,900.0,meteohub,2013-05-16 17:27:00,
2013-05-16 13:32:00,73.2,50.0,29.73,SSW,203,7.0,20.0,44,0.00,,,0.00,896.0,meteohub,2013-05-16 17:32:00,
2013-05-16 13:37:00,72.1,48.4,29.73,South,184,13.0,20.0,43,0.00,,,0.00,891.0,meteohub,2013-05-16 17:37:00,
2013-05-16 13:42:00,72.3,48.6,29.73,SW,227,13.0,20.0,43,0.00,,,0.00,888.0,meteohub,2013-05-16 17:42:00,
2013-05-16 13:47:00,72.7,49.5,29.73,SSW,202,11.0,20.0,44,0.00,,,0.00,884.0,meteohub,2013-05-16 17:47:00,
2013-05-16 13:52:00,72.7,49.5,29.72,SW,222,4.0,20.0,44,0.00,,,0.00,881.0,meteohub,2013-05-16 17:52:00,
2013-05-16 13:57:00,73.2,50.0,29.73,SW,215,6.0,19.0,44,0.00,,,0.00,875.0,meteohub,2013-05-16 17:57:00,
2013-05-16 14:02:00,74.1,50.2,29.72,South,186,4.0,19.0,43,0.00,,,0.00,872.0,meteohub,2013-05-16 18:02:00,
2013-05-16 14:07:00,74.7,50.0,29.72,South,177,9.0,15.0,42,0.00,,,0.00,867.0,meteohub,2013-05-16 18:07:00,
2013-05-16 14:12:00,73.8,48.6,29.72,South,178,7.0,17.0,41,0.00,,,0.00,861.0,meteohub,2013-05-16 18:12:00,
2013-05-16 14:17:00,74.1,48.9,29.72,SW,232,7.0,20.0,41,0.00,,,0.00,854.0,meteohub,2013-05-16 18:17:00,
2013-05-16 14:22:00,73.9,48.7,29.72,SW,215,4.0,20.0,41,0.00,,,0.00,847.0,meteohub,2013-05-16 18:22:00,
2013-05-16 14:27:00,74.1,48.9,29.72,SSW,192,10.0,19.0,41,0.00,,,0.00,840.0,meteohub,2013-05-16 18:27:00,
2013-05-16 14:32:00,74.8,48.9,29.72,WSW,245,14.0,18.0,40,0.00,,,0.00,837.0,meteohub,2013-05-16 18:32:00,
2013-05-16 14:37:00,75.4,47.3,29.72,SSW,205,6.0,17.0,37,0.00,,,0.00,830.0,meteohub,2013-05-16 18:37:00,
2013-05-16 14:42:00,74.8,48.2,29.71,SSW,198,4.0,17.0,39,0.00,,,0.00,821.0,meteohub,2013-05-16 18:42:00,
2013-05-16 14:47:00,74.8,47.5,29.71,South,182,8.0,17.0,38,0.00,,,0.00,810.0,meteohub,2013-05-16 18:47:00,
2013-05-16 14:52:00,75.0,47.7,29.71,WSW,242,15.0,17.0,38,0.00,,,0.00,802.0,meteohub,2013-05-16 18:52:00,
2013-05-16 14:57:00,75.6,48.9,29.71,SW,234,3.0,17.0,39,0.00,,,0.00,798.0,meteohub,2013-05-16 18:57:00,
2013-05-16 15:02:00,75.7,48.4,29.71,SW,219,4.0,16.0,38,0.00,,,0.00,791.0,meteohub,2013-05-16 19:02:00,
2013-05-16 15:07:00,75.4,48.0,29.70,SSE,161,9.0,16.0,38,0.00,,,0.00,784.0,meteohub,2013-05-16 19:07:00,
2013-05-16 15:12:00,75.4,48.0,29.71,South,188,5.0,17.0,38,0.00,,,0.00,770.0,meteohub,2013-05-16 19:12:00,
2013-05-16 15:17:00,76.3,48.0,29.70,SW,229,15.0,18.0,37,0.00,,,0.00,763.0,meteohub,2013-05-16 19:17:00,
2013-05-16 15:22:00,75.9,48.6,29.70,WSW,237,7.0,18.0,38,0.00,,,0.00,751.0,meteohub,2013-05-16 19:22:00,
2013-05-16 15:27:00,75.7,48.4,29.70,SW,221,5.0,20.0,38,0.00,,,0.00,740.0,meteohub,2013-05-16 19:27:00,
2013-05-16 15:32:00,76.3,48.7,29.70,SSW,202,2.0,20.0,38,0.00,,,0.00,722.0,meteohub,2013-05-16 19:32:00,
2013-05-16 15:37:00,76.6,48.4,29.70,WSW,244,4.0,20.0,37,0.00,,,0.00,715.0,meteohub,2013-05-16 19:37:00,
2013-05-16 15:42:00,76.3,48.7,29.70,SW,216,10.0,19.0,38,0.00,,,0.00,700.0,meteohub,2013-05-16 19:42:00,
2013-05-16 15:47:00,76.3,48.7,29.70,South,180,4.0,20.0,38,0.00,,,0.00,686.0,meteohub,2013-05-16 19:47:00,
2013-05-16 15:52:00,75.9,49.8,29.70,South,190,4.0,20.0,40,0.00,,,0.00,679.0,meteohub,2013-05-16 19:52:00,
2013-05-16 15:57:00,76.5,50.4,29.70,SSW,210,7.0,20.0,40,0.00,,,0.00,668.0,meteohub,2013-05-16 19:57:00,
2013-05-16 16:02:00,75.9,49.1,29.70,WSW,254,8.0,16.0,39,0.00,,,0.00,664.0,meteohub,2013-05-16 20:02:00,
2013-05-16 16:07:00,76.3,50.2,29.70,SW,217,10.0,19.0,40,0.00,,,0.00,640.0,meteohub,2013-05-16 20:07:00,
2013-05-16 16:12:00,76.6,50.5,29.69,West,277,9.0,20.0,40,0.00,,,0.00,624.0,meteohub,2013-05-16 20:12:00,
2013-05-16 16:17:00,76.8,50.7,29.69,SW,214,4.0,20.0,40,0.00,,,0.00,613.0,meteohub,2013-05-16 20:17:00,
2013-05-16 16:22:00,76.5,51.1,29.69,WSW,240,5.0,20.0,41,0.00,,,0.00,601.0,meteohub,2013-05-16 20:22:00,
2013-05-16 16:27:00,76.5,51.6,29.70,SSW,196,9.0,17.0,42,0.00,,,0.00,589.0,meteohub,2013-05-16 20:27:00,
2013-05-16 16:32:00,75.9,52.5,29.69,South,191,5.0,17.0,44,0.00,,,0.00,568.0,meteohub,2013-05-16 20:32:00,
2013-05-16 16:37:00,74.7,52.0,29.69,SSW,210,9.0,17.0,45,0.00,,,0.00,554.0,meteohub,2013-05-16 20:37:00,
2013-05-16 16:42:00,73.0,52.7,29.69,SSW,202,2.0,17.0,49,0.00,,,0.00,541.0,meteohub,2013-05-16 20:42:00,
2013-05-16 16:47:00,73.2,52.9,29.70,SW,222,6.0,17.0,49,0.00,,,0.00,522.0,meteohub,2013-05-16 20:47:00,
2013-05-16 16:52:00,72.7,52.3,29.70,SW,234,10.0,16.0,49,0.00,,,0.00,508.0,meteohub,2013-05-16 20:52:00,
2013-05-16 16:57:00,72.3,53.2,29.70,SSE,168,7.0,18.0,51,0.00,,,0.00,496.0,meteohub,2013-05-16 20:57:00,
2013-05-16 17:02:00,72.7,52.3,29.70,South,173,14.0,18.0,49,0.00,,,0.00,485.0,meteohub,2013-05-16 21:02:00,
2013-05-16 17:07:00,72.9,52.5,29.70,South,184,6.0,18.0,49,0.00,,,0.00,469.0,meteohub,2013-05-16 21:07:00,
2013-05-16 17:12:00,73.2,52.9,29.70,SW,217,5.0,16.0,49,0.00,,,0.00,454.0,meteohub,2013-05-16 21:12:00,
2013-05-16 17:17:00,72.7,52.3,29.70,SE,144,10.0,16.0,49,0.00,,,0.00,438.0,meteohub,2013-05-16 21:17:00,
2013-05-16 17:22:00,73.0,52.2,29.70,SSW,206,5.0,14.0,48,0.00,,,0.00,422.0,meteohub,2013-05-16 21:22:00,
2013-05-16 17:27:00,73.2,51.8,29.70,SW,224,10.0,14.0,47,0.00,,,0.00,404.0,meteohub,2013-05-16 21:27:00,
2013-05-16 17:32:00,73.2,52.9,29.70,WNW,288,4.0,15.0,49,0.00,,,0.00,396.0,meteohub,2013-05-16 21:32:00,
2013-05-16 17:37:00,73.6,52.7,29.69,SSW,211,4.0,15.0,48,0.00,,,0.00,380.0,meteohub,2013-05-16 21:37:00,
2013-05-16 17:42:00,73.4,52.0,29.69,SW,223,8.0,13.0,47,0.00,,,0.00,357.0,meteohub,2013-05-16 21:42:00,
2013-05-16 17:47:00,72.9,52.0,29.70,SSE,163,6.0,14.0,48,0.00,,,0.00,62.0,meteohub,2013-05-16 21:47:00,
2013-05-16 17:52:00,72.3,52.2,29.69,SW,227,12.0,16.0,49,0.00,,,0.00,332.0,meteohub,2013-05-16 21:52:00,
2013-05-16 17:57:00,72.7,51.8,29.69,SSE,159,5.0,16.0,48,0.00,,,0.00,81.0,meteohub,2013-05-16 21:57:00,
2013-05-16 18:02:00,72.7,52.3,29.69,SSE,151,6.0,13.0,49,0.00,,,0.00,299.0,meteohub,2013-05-16 22:02:00,
2013-05-16 18:07:00,72.7,52.3,29.69,WSW,240,12.0,16.0,49,0.00,,,0.00,287.0,meteohub,2013-05-16 22:07:00,
2013-05-16 18:12:00,72.7,52.3,29.70,SSE,163,5.0,16.0,49,0.00,,,0.00,260.0,meteohub,2013-05-16 22:12:00,
2013-05-16 18:17:00,72.3,52.7,29.70,SW,217,4.0,16.0,50,0.00,,,0.00,251.0,meteohub,2013-05-16 22:17:00,
2013-05-16 18:22:00,72.0,52.9,29.70,SSW,207,5.0,15.0,51,0.00,,,0.00,234.0,meteohub,2013-05-16 22:22:00,
2013-05-16 18:27:00,71.8,53.2,29.70,SSW,207,4.0,15.0,52,0.00,,,0.00,221.0,meteohub,2013-05-16 22:27:00,
2013-05-16 18:32:00,71.2,53.2,29.70,SW,218,2.0,15.0,53,0.00,,,0.00,206.0,meteohub,2013-05-16 22:32:00,
2013-05-16 18:37:00,71.2,53.2,29.70,SW,219,4.0,15.0,53,0.00,,,0.00,188.0,meteohub,2013-05-16 22:37:00,
2013-05-16 18:42:00,71.2,53.8,29.70,SW,232,12.0,15.0,54,0.00,,,0.00,171.0,meteohub,2013-05-16 22:42:00,
2013-05-16 18:47:00,70.9,54.0,29.70,SW,227,4.0,12.0,55,0.00,,,0.00,125.0,meteohub,2013-05-16 22:47:00,
2013-05-16 18:52:00,70.5,54.1,29.71,South,190,4.0,12.0,56,0.00,,,0.00,127.0,meteohub,2013-05-16 22:52:00,
2013-05-16 18:57:00,70.3,54.3,29.71,SSW,193,6.0,12.0,57,0.00,,,0.00,107.0,meteohub,2013-05-16 22:57:00,
2013-05-16 19:02:00,70.2,55.2,29.71,SW,221,5.0,12.0,59,0.00,,,0.00,102.0,meteohub,2013-05-16 23:02:00,
2013-05-16 19:07:00,70.2,55.2,29.72,WSW,237,7.0,12.0,59,0.00,,,0.00,81.0,meteohub,2013-05-16 23:07:00,
2013-05-16 19:12:00,70.0,55.4,29.72,South,178,7.0,12.0,60,0.00,,,0.00,72.0,meteohub,2013-05-16 23:12:00,
2013-05-16 19:17:00,69.6,55.0,29.72,SSW,204,2.0,12.0,60,0.00,,,0.00,54.0,meteohub,2013-05-16 23:17:00,
2013-05-16 19:22:00,69.1,54.7,29.72,SSW,198,4.0,14.0,60,0.00,,,0.00,35.0,meteohub,2013-05-16 23:22:00,
2013-05-16 19:27:00,68.7,54.7,29.72,SSW,203,3.0,18.0,61,0.00,,,0.00,32.0,meteohub,2013-05-16 23:27:00,
2013-05-16 19:32:00,68.5,54.1,29.73,WSW,257,6.0,18.0,60,0.00,,,0.00,28.0,meteohub,2013-05-16 23:32:00,
2013-05-16 19:37:00,68.4,54.3,29.73,WNW,287,2.0,18.0,61,0.00,,,0.00,25.0,meteohub,2013-05-16 23:37:00,
2013-05-16 19:42:00,68.2,53.8,29.73,WSW,252,2.0,14.0,60,0.00,,,0.00,21.0,meteohub,2013-05-16 23:42:00,
2013-05-16 19:47:00,67.6,53.8,29.73,West,269,4.0,14.0,61,0.00,,,0.00,16.0,meteohub,2013-05-16 23:47:00,
2013-05-16 19:52:00,67.3,52.9,29.73,SW,221,5.0,14.0,60,0.00,,,0.00,12.0,meteohub,2013-05-16 23:52:00,
2013-05-16 19:57:00,66.9,52.5,29.74,SSW,202,4.0,14.0,60,0.00,,,0.00,9.0,meteohub,2013-05-16 23:57:00,
2013-05-16 20:03:00,66.6,52.2,29.74,SSE,163,5.0,12.0,60,0.00,,,0.00,7.0,meteohub,2013-05-17 00:03:00,
2013-05-16 20:08:00,66.0,52.2,29.75,SW,227,6.0,12.0,61,0.00,,,0.00,0.0,meteohub,2013-05-17 00:08:00,
2013-05-16 20:13:00,65.7,52.3,29.75,SSW,200,4.0,11.0,62,0.00,,,0.00,0.0,meteohub,2013-05-17 00:13:00,
2013-05-16 20:18:00,65.1,52.2,29.75,SW,215,2.0,11.0,63,0.00,,,0.00,0.0,meteohub,2013-05-17 00:18:00,
2013-05-16 20:23:00,64.9,52.0,29.75,WSW,242,3.0,10.0,63,0.00,,,0.00,0.0,meteohub,2013-05-17 00:23:00,
2013-05-16 20:28:00,64.8,51.4,29.75,WSW,244,5.0,10.0,62,0.00,,,0.00,0.0,meteohub,2013-05-17 00:28:00,
2013-05-16 20:33:00,64.8,51.1,29.75,WSW,242,7.0,11.0,61,0.00,,,0.00,0.0,meteohub,2013-05-17 00:33:00,
2013-05-16 20:38:00,64.9,50.7,29.75,South,180,8.0,11.0,60,0.00,,,0.00,0.0,meteohub,2013-05-17 00:38:00,
2013-05-16 20:44:00,64.9,50.7,29.75,WNW,283,5.0,14.0,60,0.00,,,0.00,0.0,meteohub,2013-05-17 00:44:00,
2013-05-16 20:49:00,64.9,50.7,29.75,West,271,5.0,14.0,60,0.00,,,0.00,0.0,meteohub,2013-05-17 00:49:00,
2013-05-16 20:54:00,64.9,50.2,29.75,SSW,212,4.0,14.0,59,0.00,,,0.00,0.0,meteohub,2013-05-17 00:54:00,
2013-05-16 20:59:00,64.8,50.2,29.76,SW,234,3.0,11.0,59,0.00,,,0.00,0.0,meteohub,2013-05-17 00:59:00,
2013-05-16 21:04:00,64.6,50.0,29.75,SW,218,7.0,11.0,59,0.00,,,0.00,0.0,meteohub,2013-05-17 01:04:00,
2013-05-16 21:09:00,64.6,50.0,29.76,WSW,244,5.0,14.0,59,0.00,,,0.00,0.0,meteohub,2013-05-17 01:09:00,
2013-05-16 21:14:00,64.6,49.5,29.76,SW,229,10.0,14.0,58,0.00,,,0.00,0.0,meteohub,2013-05-17 01:14:00,
2013-05-16 21:19:00,64.2,49.1,29.76,WSW,257,5.0,17.0,58,0.00,,,0.00,0.0,meteohub,2013-05-17 01:19:00,
2013-05-16 21:25:00,64.0,48.9,29.76,SW,230,1.0,17.0,58,0.00,,,0.00,0.0,meteohub,2013-05-17 01:25:00,
2013-05-16 21:30:00,63.9,49.3,29.76,WSW,240,4.0,11.0,59,0.00,,,0.00,0.0,meteohub,2013-05-17 01:30:00,
2013-05-16 21:35:00,63.9,49.6,29.76,WSW,240,2.0,11.0,60,0.00,,,0.00,0.0,meteohub,2013-05-17 01:35:00,
2013-05-16 21:40:00,63.7,49.5,29.77,NW,308,6.0,8.0,60,0.00,,,0.00,0.0,meteohub,2013-05-17 01:40:00,
2013-05-16 21:45:00,63.7,49.5,29.77,West,267,3.0,8.0,60,0.00,,,0.00,0.0,meteohub,2013-05-17 01:45:00,
2013-05-16 21:50:00,63.5,48.9,29.77,West,266,4.0,9.0,59,0.00,,,0.00,0.0,meteohub,2013-05-17 01:50:00,
2013-05-16 21:55:00,63.5,48.9,29.77,WSW,255,0.0,9.0,59,0.00,,,0.00,0.0,meteohub,2013-05-17 01:55:00,
2013-05-16 22:00:00,63.3,48.4,29.77,SSW,204,4.0,8.0,58,0.00,,,0.00,0.0,meteohub,2013-05-17 02:00:00,
2013-05-16 22:06:00,63.7,48.6,29.77,SW,223,5.0,8.0,58,0.00,,,0.00,0.0,meteohub,2013-05-17 02:06:00,
2013-05-16 22:11:00,63.7,48.2,29.77,WSW,240,1.0,6.0,57,0.00,,,0.00,0.0,meteohub,2013-05-17 02:11:00,
2013-05-16 22:16:00,63.9,48.4,29.77,WNW,290,4.0,7.0,57,0.00,,,0.00,0.0,meteohub,2013-05-17 02:16:00,
2013-05-16 22:21:00,63.9,48.4,29.77,NNW,327,5.0,9.0,57,0.00,,,0.00,0.0,meteohub,2013-05-17 02:21:00,
2013-05-16 22:26:00,63.7,48.2,29.78,NW,307,5.0,9.0,57,0.00,,,0.00,0.0,meteohub,2013-05-17 02:26:00,
2013-05-16 22:31:00,63.3,48.4,29.78,WNW,302,0.0,8.0,58,0.00,,,0.00,0.0,meteohub,2013-05-17 02:31:00,
2013-05-16 22:36:00,63.0,48.0,29.78,WNW,302,0.0,8.0,58,0.00,,,0.00,0.0,meteohub,2013-05-17 02:36:00,
2013-05-16 22:41:00,62.2,48.2,29.78,WNW,303,2.0,7.0,60,0.00,,,0.00,0.0,meteohub,2013-05-17 02:41:00,
2013-05-16 22:47:00,61.7,48.6,29.78,WNW,303,0.0,6.0,62,0.00,,,0.00,0.0,meteohub,2013-05-17 02:47:00,
2013-05-16 22:52:00,60.8,48.2,29.78,WNW,303,4.0,6.0,63,0.00,,,0.00,0.0,meteohub,2013-05-17 02:52:00,
2013-05-16 22:57:00,59.7,48.0,29.78,NNW,339,5.0,6.0,65,0.00,,,0.00,0.0,meteohub,2013-05-17 02:57:00,
2013-05-16 23:02:00,59.4,48.0,29.79,North,0,6.0,8.0,66,0.00,,,0.00,0.0,meteohub,2013-05-17 03:02:00,
2013-05-16 23:07:00,59.4,48.0,29.79,North,0,2.0,9.0,66,0.00,,,0.00,0.0,meteohub,2013-05-17 03:07:00,
2013-05-16 23:12:00,59.7,48.4,29.78,North,0,0.0,9.0,66,0.00,,,0.00,0.0,meteohub,2013-05-17 03:12:00,
2013-05-16 23:17:00,59.4,48.7,29.79,North,9,2.0,9.0,68,0.00,,,0.00,0.0,meteohub,2013-05-17 03:17:00,
2013-05-16 23:22:00,59.0,48.9,29.79,North,9,1.0,4.0,69,0.00,,,0.00,0.0,meteohub,2013-05-17 03:22:00,
2013-05-16 23:27:00,57.9,47.8,29.79,North,9,0.0,4.0,69,0.00,,,0.00,0.0,meteohub,2013-05-17 03:27:00,
2013-05-16 23:32:00,57.4,48.0,29.79,North,9,0.0,4.0,71,0.00,,,0.00,0.0,meteohub,2013-05-17 03:32:00,
2013-05-16 23:37:00,57.2,48.6,29.79,North,9,0.0,3.0,73,0.00,,,0.00,0.0,meteohub,2013-05-17 03:37:00,
2013-05-16 23:42:00,57.2,48.6,29.79,North,9,0.0,3.0,73,0.00,,,0.00,0.0,meteohub,2013-05-17 03:42:00,
2013-05-16 23:47:00,56.7,48.4,29.79,North,9,0.0,3.0,74,0.00,,,0.00,0.0,meteohub,2013-05-17 03:47:00,
2013-05-16 23:52:00,56.1,48.4,29.79,North,9,0.0,3.0,75,0.00,,,0.00,0.0,meteohub,2013-05-17 03:52:00,
2013-05-16 23:57:00,55.9,48.6,29.80,North,9,0.0,3.0,76,0.00,,,0.00,0.0,meteohub,2013-05-17 03:57:00,